Weather in Bolshoye Karachkino

Russia / Chuvash Republic     56°07′03″N   46°36′41″E
temp.,
°C
wind,
m/s
gust,
m/s
humid.,
%
clouds,
%
prec.,
mm/h
press.,
hPa
HPBL,
m
27 october, wed
wed2700:00+2sw51275100 0.0 1019397
03:00+1sw5127994 0.0 1018362
06:00+1sw51282100 0.0 1017363
09:00+2sw61175100 0.0 1016459
12:00+5sw71262100 0.0 1015661
15:00+6sw71358100 0.0 1013760
18:00+5sw71564100 0.0 1012658
21:00+5wsw81567100 0.0 1010889
28 october, thu
thu2800:00+3wsw71396100 1.5 1010746
03:00+5w6129199 2.1 1010746
06:00+5wsw6118699 0.0 1011663
09:00+5wsw61182100 0.1 1012610
12:00+7wsw61070100 0.1 1011817
15:00+8wsw4771100 0.1 1011941
18:00+6wsw3693100 2.4 1011885
21:00+5n3692100 4.1 1013839
29 october, fri
fri2900:00+5n6989100 0.1 1016709
03:000nne69755 0.2 1021530
06:00−3nne48775 0.0 1026386
09:00−2ne346699 0.0 1028362
12:00+1se114833 0.0 1029507
15:00+2ssw344759 0.0 1029524
18:000ssw3862100 0.0 1029208
21:00+1ssw51157100 0.1 1027322
30 october, sat
sat3000:00+4sw71678100 0.0 1025582
03:00+5wsw7158141 0.0 1025533
06:00+4wsw7159153 0.0 1024415
09:00+5wsw7159141 0.0 1025461
12:00+9w7138044 0.0 1025595
15:00+8w61385100 0.0 1025563
18:00+7wsw5139116 0.0 1026385
21:00+6wsw512935 0.0 1027315
31 october, sun
sun3100:00+5wsw410935 0.0 1028227
03:00+4wsw49935 0.0 1028183
06:00+3wsw410915 0.0 1028177
09:00+5wsw511815 0.0 1028291
12:00+9wsw6116360 0.0 1027491
15:00+9wsw6126619 0.0 1026516
18:00+6wsw6147844 0.0 1027342
21:00+5wsw5128830 0.0 1027278